Weather History for KBML - December, 2003

Change the Weather History Date:

Thursday, December 11, 2003

  Actual Average Record
Temperature  
Mean Temperature 39 °F -  
Max Temperature 44 °F 30 °F 44 °F (2003)
Min Temperature 34 °F 12 °F -5 °F (1997)
Degree Days  
Heating Degree Days 26    
Moisture  
Dew Point 37 °F    
Average Humidity 95    
Maximum Humidity 100    
Minimum Humidity 85    
Precipitation  
Precipitation 1.07 in - - ()
Sea Level Pressure  
Sea Level Pressure 29.57 in    
Wind  
Wind Speed 9 mph (SE)    
Max Wind Speed 20 mph    
Max Gust Speed 24 mph    
Visibility 4 miles    
Events Fog , Rain    
Averages and records for this station are not official NWS values.
T = Trace of Precipitation, MM = Missing Value Source: NWS Daily Summary

Daily Weather History Graph

Daily Weather History Graph

Search for Another Location

Airport or City:

Trip Planner

Search our weather history database for the weather conditions in past years. The results will help you decide how hot, cold, wet, or windy it might be!

Date:

Astronomy

Dec. 11, 2003 Rise Set
Actual Time 7:11 AM EST 4:04 PM EST
Civil Twilight 6:37 AM EST 4:37 PM EST
Nautical Twilight 6:00 AM EST 5:14 PM EST
Astronomical Twilight 5:25 AM EST 5:50 PM EST
Moon 6:14 PM EST (12/11) 9:48 AM EST (12/11)
Length of Visible Light 10h 00m
Length of Day
8h 53m
Waning Gibbous, 93% of the Moon is Illuminated
Dec 11
Waning Gibbous
Dec 16
Last Quarter
Dec 23
New
Dec 30
First Quarter
Jan 7
Full

Hourly Weather History & Observations

Time (EST) Temp. Windchill Dew Point Humidity Pressure Visibility Wind Dir Wind Speed Gust Speed Precip Events Conditions
12:52 AM 34.0 °F 24.2 °F 30.0 °F 85% 29.99 in 10.0 mi SE 15.0 mph 23.0 mph N/A   Partly Cloudy
1:20 AM 35.6 °F 27.5 °F 32.0 °F 87% 29.93 in 10.0 mi SSE 11.5 mph - N/A   Mostly Cloudy
1:52 AM 36.0 °F 26.7 °F 32.0 °F 86% 29.96 in 10.0 mi SE 15.0 mph - N/A   Scattered Clouds
2:01 AM 35.6 °F 25.9 °F 32.0 °F 87% 29.93 in 10.0 mi SE 16.1 mph 21.9 mph N/A   Mostly Cloudy
2:52 AM 36.0 °F 27.1 °F 33.1 °F 89% 29.96 in 10.0 mi SE 13.8 mph 24.2 mph N/A   Overcast
3:52 AM 36.0 °F 27.1 °F 33.1 °F 89% 29.94 in 10.0 mi SE 13.8 mph - N/A   Overcast
4:01 AM 35.6 °F 24.8 °F 33.8 °F 93% 29.88 in 10.0 mi SE 19.6 mph 23.0 mph N/A   Overcast
4:44 AM 35.6 °F 26.6 °F 33.8 °F 93% 29.87 in 10.0 mi East 13.8 mph - N/A   Overcast
4:52 AM 36.0 °F 27.5 °F 33.1 °F 89% 29.91 in 9.0 mi ESE 12.7 mph 20.7 mph N/A   Overcast
5:07 AM 35.6 °F 27.1 °F 33.8 °F 93% 29.85 in 10.0 mi ESE 12.7 mph 19.6 mph N/A   Overcast
5:16 AM 35.6 °F 29.2 °F 33.8 °F 93% 29.85 in 10.0 mi ESE 8.1 mph - N/A   Overcast
5:37 AM 35.6 °F 29.2 °F 33.8 °F 93% 29.84 in 6.0 mi SE 8.1 mph - N/A   Overcast
5:52 AM 36.0 °F 31.1 °F 34.0 °F 93% 29.89 in 6.0 mi South 5.8 mph - N/A   Overcast
6:52 AM 36.0 °F 29.0 °F 34.0 °F 93% 29.90 in 4.0 mi SSW 9.2 mph - N/A   Overcast
7:05 AM 35.6 °F 27.1 °F 33.8 °F 93% 29.86 in 5.0 mi SSE 12.7 mph 18.4 mph 0.00 in Rain Light Rain
7:21 AM 35.6 °F 28.0 °F 33.8 °F 93% 29.84 in 6.0 mi SSE 10.4 mph - 0.00 in Rain Light Rain
7:52 AM 36.0 °F 29.0 °F 35.1 °F 97% 29.86 in 4.0 mi SE 9.2 mph - 0.00 in Rain Light Rain
8:30 AM 37.4 °F 28.9 °F 35.6 °F 93% 29.79 in 4.0 mi SSE 13.8 mph - 0.00 in   Overcast
8:52 AM 36.0 °F 30.3 °F 35.1 °F 97% 29.82 in 2.5 mi SSE 6.9 mph - 0.00 in Rain Light Rain
9:04 AM 37.4 °F 31.4 °F 35.6 °F 93% 29.77 in 1.5 mi SE 8.1 mph - 0.01 in Rain Light Rain
9:23 AM 37.4 °F 32.8 °F 35.6 °F 93% 29.77 in 1.8 mi SSE 5.8 mph - 0.01 in Rain Light Rain
9:31 AM 35.6 °F 31.7 °F 35.6 °F 100% 29.77 in 1.2 mi SSE 4.6 mph - 0.02 in Rain Light Rain
9:39 AM 35.6 °F 29.9 °F 35.6 °F 100% 29.76 in 1.2 mi SE 6.9 mph - 0.02 in Rain Light Rain
9:52 AM 37.0 °F 31.0 °F 36.0 °F 96% 29.81 in 1.5 mi SSE 8.1 mph - 0.03 in Rain Light Rain
10:03 AM 37.4 °F 31.4 °F 35.6 °F 93% 29.75 in 1.5 mi South 8.1 mph - 0.01 in Rain Light Rain
10:05 AM 37.4 °F 32.1 °F 35.6 °F 93% 29.74 in 1.2 mi SSE 6.9 mph - 0.02 in Rain Light Rain
10:08 AM 37.4 °F 32.1 °F 35.6 °F 93% 29.74 in 1.5 mi SSE 6.9 mph - 0.02 in Rain Light Rain
10:16 AM 37.4 °F 32.1 °F 35.6 °F 93% 29.73 in 1.8 mi SSE 6.9 mph - 0.02 in Rain Light Rain
10:23 AM 37.4 °F 32.1 °F 35.6 °F 93% 29.72 in 2.0 mi SSE 6.9 mph - 0.02 in Rain Light Rain
10:52 AM 37.0 °F 31.6 °F 37.0 °F 100% 29.73 in 4.0 mi South 6.9 mph - 0.04 in Rain Light Rain
11:06 AM 37.4 °F - 35.6 °F 93% 29.66 in 2.5 mi Calm Calm - 0.01 in Rain Light Rain
11:38 AM 37.4 °F 30.8 °F 37.4 °F 100% 29.63 in 1.8 mi SSE 9.2 mph - 0.03 in Rain Light Rain
11:45 AM 39.2 °F 33.0 °F 37.4 °F 93% 29.62 in 3.0 mi South 9.2 mph - 0.03 in Rain Light Rain
11:52 AM 39.0 °F 32.8 °F 37.9 °F 96% 29.67 in 3.0 mi South 9.2 mph - 0.04 in Rain Light Rain
12:01 PM 39.2 °F 33.6 °F 37.4 °F 93% 29.61 in 2.0 mi SSE 8.1 mph - 0.00 in Rain Light Rain
12:23 PM 39.2 °F 34.2 °F 37.4 °F 93% 29.59 in 4.0 mi SSE 6.9 mph - 0.02 in Rain Light Rain
12:52 PM 39.0 °F 35.7 °F 37.9 °F 96% 29.59 in 1.8 mi South 4.6 mph - 0.06 in Rain Rain
1:01 PM 37.4 °F - 37.4 °F 100% 29.55 in 2.0 mi Calm Calm - 0.01 in Rain Rain
1:08 PM 37.4 °F - 37.4 °F 100% 29.54 in 1.2 mi Calm Calm - 0.03 in Rain Rain
1:18 PM 37.4 °F - 37.4 °F 100% 29.53 in 1.5 mi Calm Calm - 0.05 in Rain Rain
1:31 PM 37.4 °F 33.8 °F 37.4 °F 100% 29.52 in 2.0 mi North 4.6 mph - 0.07 in Rain Rain
1:34 PM 37.4 °F 33.8 °F 37.4 °F 100% 29.52 in 1.2 mi North 4.6 mph - 0.08 in Rain Rain
1:52 PM 37.9 °F 34.4 °F 37.9 °F 100% 29.53 in 1.5 mi Variable 4.6 mph - 0.11 in Rain Rain
2:00 PM 37.4 °F 33.8 °F 37.4 °F 100% 29.50 in 1.2 mi North 4.6 mph - 0.01 in Rain Light Rain
2:13 PM 39.2 °F 35.0 °F 39.2 °F 100% 29.48 in 2.0 mi NNW 5.8 mph - 0.02 in Rain Light Rain
2:24 PM 39.2 °F 35.0 °F 39.2 °F 100% 29.48 in 3.0 mi North 5.8 mph - 0.03 in Rain Rain
2:34 PM 39.2 °F 34.2 °F 37.4 °F 93% 29.46 in 2.5 mi North 6.9 mph - 0.04 in Rain Rain
2:52 PM 39.0 °F 35.7 °F 37.9 °F 96% 29.48 in 3.0 mi North 4.6 mph - 0.07 in Rain Light Rain
3:20 PM 39.2 °F 37.0 °F 39.2 °F 100% 29.42 in 2.5 mi ESE 3.5 mph - 0.04 in Rain Rain
3:44 PM 44.6 °F 41.4 °F 41.0 °F 87% 29.40 in 4.0 mi ENE 5.8 mph - 0.08 in Rain Light Rain
3:52 PM 43.0 °F 37.7 °F 41.0 °F 93% 29.41 in 4.0 mi ENE 9.2 mph - 0.09 in Rain Rain
4:25 PM 42.8 °F 40.1 °F 41.0 °F 93% 29.36 in 2.5 mi WNW 4.6 mph - 0.11 in Rain Heavy Rain
4:39 PM 42.8 °F 40.1 °F 42.8 °F 100% 29.35 in 3.0 mi NW 4.6 mph - 0.16 in Rain Heavy Rain
4:52 PM 42.1 °F 39.2 °F 41.0 °F 96% 29.35 in 3.0 mi WNW 4.6 mph - 0.21 in Rain Heavy Rain
4:59 PM 41.0 °F 39.0 °F 41.0 °F 100% 29.32 in 2.5 mi Variable 3.5 mph - 0.02 in Rain Heavy Rain
5:44 PM 42.8 °F 40.1 °F 42.8 °F 100% 29.27 in 3.0 mi NW 4.6 mph - 0.20 in Rain Rain
5:52 PM 43.0 °F 41.3 °F 42.1 °F 97% 29.29 in 2.0 mi Variable 3.5 mph - 0.22 in Rain Rain
6:35 PM 39.2 °F 33.6 °F 39.2 °F 100% 29.25 in 4.0 mi North 8.1 mph - 0.09 in Rain Rain
6:52 PM 41.0 °F 35.8 °F 41.0 °F 100% 29.26 in 3.0 mi NNW 8.1 mph - 0.10 in Rain Light Rain
7:12 PM 41.0 °F 37.1 °F 39.2 °F 93% 29.23 in 2.5 mi North 5.8 mph - 0.01 in Rain Light Rain
7:35 PM 37.4 °F 32.8 °F 37.4 °F 100% 29.21 in 1.2 mi SE 5.8 mph - 0.03 in Rain Light Rain
7:45 PM 39.2 °F 33.0 °F 39.2 °F 100% 29.19 in 2.0 mi East 9.2 mph - 0.03 in Rain Light Rain
7:52 PM 39.0 °F 36.8 °F 39.0 °F 100% 29.23 in 1.5 mi WNW 3.5 mph - 0.03 in Rain Light Rain
8:01 PM 39.2 °F - 39.2 °F 100% 29.19 in 2.0 mi Calm Calm - 0.01 in Rain Light Rain
8:19 PM 39.2 °F - 39.2 °F 100% 29.18 in 1.2 mi Calm Calm - 0.01 in Rain Light Rain
8:31 PM 39.2 °F 37.0 °F 39.2 °F 100% 29.18 in 1.5 mi North 3.5 mph - 0.02 in Rain Light Rain
8:36 PM 39.2 °F - 39.2 °F 100% 29.18 in 0.8 mi Calm Calm - 0.02 in Rain Light Rain
8:52 PM 39.0 °F 36.8 °F 37.9 °F 96% 29.19 in 0.5 mi NNW 3.5 mph - 0.03 in Fog , Rain Light Rain
9:52 PM 37.9 °F - 37.9 °F 100% 29.21 in 0.5 mi Calm Calm - 0.03 in Fog , Rain Rain
10:11 PM 37.4 °F - 37.4 °F 100% 29.19 in 0.8 mi Calm Calm - 0.01 in   Overcast
10:18 PM 41.0 °F 36.4 °F 39.2 °F 93% 29.20 in 1.5 mi Variable 6.9 mph - 0.01 in   Overcast
10:23 PM 42.8 °F 37.5 °F 42.8 °F 100% 29.20 in 4.0 mi West 9.2 mph - 0.01 in   Overcast
10:52 PM 39.0 °F 31.0 °F 37.0 °F 93% 29.25 in 10.0 mi West 13.8 mph 21.9 mph 0.01 in   Overcast
11:52 PM 37.0 °F 29.3 °F 33.1 °F 86% 29.29 in 10.0 mi WNW 11.5 mph 21.9 mph 0.00 in Rain Light Rain